Location: Newark
(41.0400°S, 62.7845°W)
Time: 13:14:25
(UTC+00:00)

Vanguard 2 Rocket - Visible Passes

Search period start: 08 December 2021 00:00
Search period end: 18 December 2021 00:00
Orbit: 555 x 3324 km, 32.9° (Epoch: 08 December)

Date Brightness Start Highest point End Pass type
(mag) Time Alt. Az. Time Alt. Az. Time Alt. Az.
08 Dec 10.6 04:15:56 13° NE 04:18:49 13° NE 04:26:20 10° ENE visible
08 Dec 10.1 06:21:39 19° NNW 06:34:11 37° NNE 06:49:19 10° E visible
09 Dec 10.2 05:24:38 23° N 05:32:39 29° NE 05:47:23 10° E visible
09 Dec 9.8 07:30:21 11° NW 07:49:04 53° NNE 08:04:21 10° E visible
10 Dec 10.3 04:27:33 20° NNE 04:31:25 21° NE 04:44:08 10° E visible
10 Dec 9.9 06:33:16 20° NNW 06:47:11 46° NNE 07:03:27 10° E visible
11 Dec 10.6 03:30:25 13° NE 03:30:33 13° NE 03:38:07 10° ENE visible
11 Dec 10.0 05:36:08 26° N 05:45:26 38° NNE 06:01:54 10° E visible
11 Dec 9.7 07:42:35 10° WNW 08:02:21 60° NNE 08:18:07 10° E visible
12 Dec 10.0 04:38:56 27° NNE 04:44:00 30° NE 04:59:29 10° E visible
12 Dec 9.8 06:44:38 18° NW 07:00:15 54° NNE 07:17:18 10° E visible
13 Dec 10.2 03:41:40 21° NE 03:42:57 21° NE 03:55:45 10° E visible
13 Dec 9.8 05:47:23 27° NNW 05:58:17 47° NNE 06:15:56 10° E visible
13 Dec 9.7 07:55:41 10° WNW 08:15:42 65° N 08:31:48 10° E visible
14 Dec 10.5 02:44:21 12° ENE 02:44:21 12° ENE 02:49:02 10° ENE visible
14 Dec 9.8 04:50:02 31° N 04:56:37 38° NE 05:13:55 10° E visible
14 Dec 9.7 06:55:44 14° WNW 07:13:28 61° NNE 07:31:00 10° E visible
15 Dec 9.9 03:52:39 28° NNE 03:55:23 29° NE 04:11:01 10° E visible
15 Dec 9.7 05:58:20 24° NW 06:11:17 55° NNE 06:29:44 10° E visible
16 Dec 10.2 02:55:11 20° NE 02:55:11 20° NE 03:06:46 10° E visible
16 Dec 9.7 05:00:52 32° NNW 05:09:23 47° NNE 05:27:53 10° E visible
16 Dec 9.7 07:07:21 10° WNW 07:26:45 65° N 07:44:38 10° E visible
17 Dec 10.5 01:57:38 11° ENE 01:57:38 11° ENE 01:59:04 10° ENE visible
17 Dec 9.6 04:03:19 34° N 04:07:55 38° NE 04:25:22 10° E visible
17 Dec 9.6 06:08:59 18° WNW 06:24:25 62° NNE 06:43:23 10° E visible
